Location: Dürabuch
(48.2640°N, 11.2185°E)
Time: 01:21:42
(UTC+00:00)

Cosmos 2181 Rocket - Pass Details

Date: 23 May 2024
Orbit: 951 x 1014 km, 82.9° (Epoch: 19 June)

Event Time Altitude Azimuth Distance (km) Brightness Sun altitude
Rises 01:48:50 0° 350° (N) 3,745 7.7 -12.7°
Reaches altitude 10° 01:51:24 10° 349° (N) 2,783 7.0 -12.4°
Maximum altitude 01:57:47 82° 264° (W) 1,006 4.0 -11.7°
Drops below altitude 10° 02:04:03 10° 177° (S) 2,721 5.9 -11.1°
Enters shadow 02:05:56 - 177° (S) 3,436 6.4 -10.9°
